Location: Newark
(25.4800°N, 85.7200°E)
Time: 00:35:51
(UTC+00:00)

Explorer 11/Cluster Stage 4 - Pass Details

Date: 23 August 2019
Orbit: 467 x 1260 km, 28.8° (Epoch: 20 September)

Event Time Altitude Azimuth Distance (km) Brightness Sun altitude
Rises 11:45:22 0° 272° (W) 3,767 12.1 12.6°
Reaches altitude 10° 11:49:20 10° 253° (WSW) 2,640 10.8 11.7°
Maximum altitude 11:53:06 16° 217° (SW) 2,040 9.2 10.9°
Drops below altitude 10° 11:56:27 10° 179° (S) 2,288 8.9 10.1°
Sets 11:59:33 0° 157° (SSE) 3,048 9.3 9.4°
